CZ-4 DEB, 26143

Orbit data source: Space-Track

CZ-4 DEB, 26143 is space debris in SSO originally from a launch on Thu, 14 Oct 1999 UTC launched from the Taiyaun Space Center, China (TSC). Debris objects in space refer to the collection of defunct objects orbiting the Earth. Examples of debris include non-operational satellites, rocket bodies, and fragments generated from explosions, collisions, or faulty payload assembly.

Loading next visibility...
Identifier
26143, 1999-057AF
Orbit
SSO
Country
Flag of CNCN / PRC
Related business
Manufacturer
Unknown
Mission
Spacecraft
Bus & Motor
Unknown
Mass
Unknown
Launch date (UTC)
1999-10-14 (26 years ago)
Launch vehicle
Unknown
Launch site
Taiyaun Space Center, China (TSC)
Object type
Payload
Rocket body
Debris
Shape & HBR
Unknown shape, 0.1 m
Radar Cross Section
Small (<0.1 m²)

Expand to show TLE details & history
Last TLE update: 1 day ago

TLE from 1 day ago
0 CZ-4 DEB
1 26143U 99057AF  25302.94190860  .00001199  00000-0  10087-2 0  9993
2 26143  98.9691 281.4375 0477123 350.0722  66.2909 13.47384146256717
Epoch: 2025-10-29T22:36Z
TLE epoch observation values (Epoch: 2025-10-29T22:36:20.903Z)
Latitude
60.31562°
Longitude
-112.14548°
Altitude
963.603 km
Speed
7.439 km/s
True Right ascension
17h 41m 47s
True Declination
60° 10' 18"
Sunlit
Object was in daylight at epoch
Visualization orbit readout
Latitude
Unknown
Longitude
Unknown
Altitude
Unknown
Speed
Unknown
Apparent Right ascension
Unknown
Apparent Declination
Unknown
Sunlit
N/A
Visualization observer readout
Local Sidereal Time
05:44:13
Azimuth
Unknown
Elevation
Unknown
Doppler factor
Unknown
Orbital elements
Apogee altitude
1,434.962 km
Perigee altitude
723.353 km
Semi-major axis
7,457.295 km
Eccentricity
0.04771
Inclination
98.9691°
RAAN
281.4375°
Arg. of periapsis
350.0722°
True anomaly
71.41289°
Mean anomaly
66.2909°
Eccentric anomaly
68.8403°
Mean motion
3.37032 °/min
Orbital period
106.81 mins
BSTAR
0.0010087
Loading maneuver chart data...
Computing Atmospheric mass density...

Documentation

Showing up to 5 results
|